Regional Weather Roundup
Issued by NWS

Home | Current Version | Previous Version | Graphics & Text | Print | Product List | Glossary On
Versions: 1 2 3 4 5 6 7 8 9 10 11 12 13 14 15 16 17 18 19 20 21 22 23 24 25 26 27
000
ASUS45 KCYS 271310
RWRWY

WYOMING REGIONAL WEATHER ROUNDUP
NATIONAL WEATHER SERVICE CHEYENNE WY
600 AM MST MON FEB 27 2017

NOTE:  "FAIR" INDICATES FEW OR NO CLOUDS BELOW 12,000 FEET
WITH NO SIGNIFICANT WEATHER AND/OR OBSTRUCTIONS TO VISIBILITY.

WYZ001-271400-
YELLOWSTONE NATIONAL PARK

CITY           SKY/WX    TMP DP  RH WIND       PRES   REMARKS
LK YELLOWSTONE   N/A      3   1  91 CALM      29.50R
W YELLOWSTONE  NOT AVBL

$$
WYZ002>013-054>058-071-098>099-271400-
NORTHERN WYOMING

CITY           SKY/WX    TMP DP  RH WIND       PRES   REMARKS
JACKSON        CLOUDY    16  12  86 SW6       29.53S WCI   7
CODY           FAIR      19  11  70 CALM      29.55R
GREYBULL       FAIR      22  13  68 CALM      29.57S
WORLAND        FAIR      18  13  80 CALM      29.56R
SHERIDAN       FAIR      15   8  73 S8        29.55S WCI   4
BUFFALO        FAIR      28   5  37 W18       29.53S WCI  15
GILLETTE       FAIR      26  10  50 SW17      29.55F WCI  13
HULETT         FAIR      27  10  50 SW9       29.58S WCI  17
NEWCASTLE      FAIR      18   9  68 CALM      29.63R

$$
WYZ014>020-022>026-101>103-271400-
CENTRAL WYOMING

CITY           SKY/WX    TMP DP  RH WIND       PRES   REMARKS
BIG PINEY      LGT SNOW  11   7  84 N12       29.56R WCI  -3
PINEDALE       LGT SNOW  12   9  85 NW9       29.56R WCI   0
DUBOIS         CLOUDY    14   9  79 CALM      29.49S
LANDER         LGT SNOW  14  11  87 S5        29.55S FOG     WCI   6
RIVERTON       CLOUDY    13   8  81 W6        29.56R WCI   4
CASPER         CLOUDY    21  14  74 W9        29.53F WCI  11
DOUGLAS        CLOUDY    21  12  68 S3        29.60F

$$
WYZ021-027>030-104>119-271400-
SOUTHERN WYOMING

CITY           SKY/WX    TMP DP  RH WIND       PRES   REMARKS
EVANSTON       LGT SNOW  24  20  84 NW10      29.54R FOG     WCI  14
FORT BRIDGER   PTSUNNY   18  18  99 W8        29.56R WCI   8
ROCK SPRINGS   FAIR      23  13  65 SW17      29.53R WCI   9
DIXON            N/A     30  19  63 S20G28    29.62F WCI  18
RAWLINS        MOCLDY    26  17  68 SW24G38   29.54F WCI  11
SARATOGA       PTSUNNY   27  18  69 S12       29.58F WCI  16
LARAMIE        FAIR      18  10  71 S9        29.58F WCI   7
CHEYENNE       FAIR      12   3  67 SW7       29.63S WCI   1
TORRINGTON     FAIR       7   1  76 E5        29.67S WCI  -2
PINE BLUFFS    FAIR      14  10  85 W10G22    29.67F WCI   1

$$




USA.gov is the U.S. government's official web portal to all federal, state and local government web resources and services.